Weather History for Crestview, FL

Change the Weather History Date:

Saturday, July 13, 2013

  Actual Average Record
Temperature  
Mean Temperature 78 °F -  
Max Temperature 86 °F - - ()
Min Temperature 69 °F - - ()
Cooling Degree Days 12    
Growing Degree Days 28 (Base 50)    
Moisture  
Dew Point 71 °F    
Average Humidity 86    
Maximum Humidity 100    
Minimum Humidity 65    
Precipitation  
Precipitation 0.70 in - - ()
Sea Level Pressure  
Sea Level Pressure 29.95 in    
Wind  
Wind Speed 5 mph (NE)    
Max Wind Speed 18 mph    
Max Gust Speed 25 mph    
Visibility 9 miles    
Events Rain , Thunderstorm    
T = Trace of Precipitation, MM = Missing Value Source: NWS Daily Summary

Daily Weather History Graph

Daily Weather History Graph

Search for Another Location

Airport:

Trip Planner

Search our weather history database for the weather conditions in past years. The results will help you decide how hot, cold, wet, or windy it might be!

Date:

Astronomy

Jul. 13, 2013 Rise Set
Actual Time 5:52 AM CDT 7:50 PM CDT
Civil Twilight 5:25 AM CDT 8:17 PM CDT
Nautical Twilight 4:52 AM CDT 8:50 PM CDT
Astronomical Twilight 4:17 AM CDT 9:25 PM CDT
Moon 10:43 AM CDT (7/13) 10:58 PM CDT (7/13)
Length of Visible Light 14h 52m
Length of Day
13h 57m
Waxing Crescent, 26% of the Moon is Illuminated
Jul 13
Waxing Crescent
Jul 15
First Quarter
Jul 22
Full
Jul 29
Last Quarter
Aug 6
New

Hourly Weather History & Observations

Time (CDT) Temp. Heat Index Dew Point Humidity Pressure Visibility Wind Dir Wind Speed Gust Speed Precip Events Conditions
12:58 AM 72.3 °F - 72.0 °F 99% 29.91 in 10.0 mi ENE 3.5 mph - N/A   Clear
1:18 AM 71.6 °F - 71.6 °F 100% 29.90 in 10.0 mi North 2.3 mph - N/A   Light Drizzle
1:30 AM 71.6 °F - 71.6 °F 100% 29.89 in 10.0 mi WSW 2.3 mph - N/A   Partly Cloudy
1:58 AM 72.0 °F - 71.8 °F 99% 29.91 in 10.0 mi North 3.5 mph - 0.00 in   Partly Cloudy
2:58 AM 72.0 °F - 70.7 °F 96% 29.91 in 10.0 mi North 2.3 mph - N/A   Clear
3:58 AM 71.4 °F - 71.1 °F 99% 29.90 in 10.0 mi NNW 3.5 mph - N/A   Clear
4:58 AM 70.9 °F - 70.5 °F 99% 29.89 in 10.0 mi ENE 1.2 mph - N/A   Clear
5:58 AM 71.2 °F - 70.0 °F 96% 29.91 in 10.0 mi East 2.3 mph - N/A   Clear
6:58 AM 71.4 °F - 70.3 °F 96% 29.93 in 10.0 mi Calm Calm - N/A   Clear
7:58 AM 74.8 °F - 72.0 °F 91% 29.93 in 10.0 mi Calm Calm - N/A   Clear
8:55 AM 80.1 °F 84.2 °F 73.0 °F 79% 29.94 in 10.0 mi South 4.6 mph - N/A   Mostly Cloudy
9:55 AM 83.8 °F 89.5 °F 72.1 °F 68% 29.94 in 10.0 mi Variable 3.5 mph - N/A   Mostly Cloudy
10:55 AM 86.0 °F 93.4 °F 73.4 °F 66% 29.95 in 10.0 mi East 5.8 mph - N/A   Mostly Cloudy
11:12 AM 86.0 °F 93.4 °F 73.4 °F 66% 29.95 in 10.0 mi SSE 6.9 mph - N/A Thunderstorm Thunderstorm
11:55 AM 81.9 °F 85.8 °F 70.2 °F 68% 29.95 in 10.0 mi ESE 10.4 mph - N/A Thunderstorm Thunderstorm
12:06 PM 80.6 °F 83.2 °F 68.0 °F 65% 29.94 in 10.0 mi Variable 3.5 mph - N/A Rain , Thunderstorm Light Thunderstorms and Rain
12:22 PM 80.6 °F 83.9 °F 69.8 °F 70% 29.94 in 10.0 mi East 4.6 mph - N/A Thunderstorm Thunderstorm
12:55 PM 80.6 °F 85.4 °F 73.4 °F 79% 29.95 in 10.0 mi West 2.3 mph - N/A Thunderstorm Mostly Cloudy
1:01 PM 80.6 °F 85.4 °F 73.4 °F 79% 29.95 in 10.0 mi Variable 2.3 mph - N/A Thunderstorm Thunderstorm
1:30 PM 82.4 °F 88.2 °F 73.4 °F 74% 29.95 in 10.0 mi NNW 11.5 mph - N/A Rain , Thunderstorm Light Thunderstorms and Rain
1:55 PM 80.4 °F 84.7 °F 72.7 °F 77% 29.94 in 10.0 mi North 5.8 mph - 0.00 in Thunderstorm Thunderstorm
2:15 PM 80.6 °F 84.6 °F 71.6 °F 74% 29.96 in 10.0 mi ESE 5.8 mph - N/A Rain , Thunderstorm Light Thunderstorms and Rain
2:55 PM 74.1 °F - 69.4 °F 85% 29.94 in 10.0 mi South 8.1 mph - 0.02 in Rain , Thunderstorm Light Thunderstorms and Rain
3:12 PM 75.2 °F - 69.8 °F 83% 29.92 in 10.0 mi WSW 4.6 mph - N/A   Mostly Cloudy
3:55 PM 80.4 °F 84.4 °F 71.8 °F 75% 29.92 in 10.0 mi Variable 4.6 mph - 0.00 in   Mostly Cloudy
4:58 PM 83.3 °F 87.6 °F 70.5 °F 65% 29.91 in 10.0 mi South 8.1 mph - N/A   Partly Cloudy
5:58 PM 81.7 °F 86.5 °F 72.3 °F 73% 29.91 in 10.0 mi SE 8.1 mph - N/A   Clear
6:58 PM 82.4 °F 87.2 °F 71.6 °F 70% 29.94 in 10.0 mi South 4.6 mph - N/A   Partly Cloudy
7:08 PM 82.4 °F 87.2 °F 71.6 °F 70% 29.93 in 10.0 mi South 5.8 mph - N/A   Mostly Cloudy
7:18 PM 82.4 °F 87.2 °F 71.6 °F 70% 29.93 in 10.0 mi South 5.8 mph - N/A   Mostly Cloudy
7:43 PM 80.6 °F 84.6 °F 71.6 °F 74% 29.94 in 10.0 mi South 3.5 mph - N/A   Overcast
7:53 PM 78.8 °F - 73.4 °F 83% 29.94 in 10.0 mi WNW 5.8 mph - N/A   Mostly Cloudy
7:58 PM 79.3 °F - 72.1 °F 79% 29.94 in 10.0 mi WNW 6.9 mph - N/A   Mostly Cloudy
8:05 PM 78.8 °F - 71.6 °F 78% 29.94 in 10.0 mi WNW 8.1 mph - N/A Thunderstorm Thunderstorm
8:20 PM 77.0 °F - 69.8 °F 78% 29.94 in 10.0 mi NW 4.6 mph - N/A Thunderstorm Scattered Clouds
8:50 PM 73.4 °F - 68.0 °F 83% 29.96 in 10.0 mi North 18.4 mph 25.3 mph N/A Thunderstorm Mostly Cloudy
9:00 PM 73.4 °F - 68.0 °F 83% 29.97 in 5.0 mi NNE 15.0 mph 25.3 mph N/A Rain , Thunderstorm Rain
9:05 PM 71.6 °F - 69.8 °F 94% 29.97 in 1.2 mi North 16.1 mph 19.6 mph N/A Rain Heavy Rain
9:10 PM 71.6 °F - 69.8 °F 94% 29.98 in 0.8 mi NNW 10.4 mph 19.6 mph N/A Rain Heavy Rain
9:12 PM 71.6 °F - 69.8 °F 94% 29.98 in 0.8 mi NNW 9.2 mph 19.6 mph N/A Rain , Thunderstorm Heavy Thunderstorms and Rain
9:17 PM 71.6 °F - 69.8 °F 94% 29.98 in 1.5 mi NE 5.8 mph - N/A Rain , Thunderstorm Thunderstorms and Rain
9:22 PM 71.6 °F - 69.8 °F 94% 29.98 in 5.0 mi ENE 4.6 mph - N/A Rain , Thunderstorm Light Thunderstorms and Rain
9:27 PM 71.6 °F - 69.8 °F 94% 30.00 in 7.0 mi East 5.8 mph - N/A Rain Light Rain
9:32 PM 71.6 °F - 69.8 °F 94% 30.00 in 9.0 mi NNE 6.9 mph - N/A Rain Light Rain
9:37 PM 71.6 °F - 69.8 °F 94% 30.00 in 10.0 mi North 6.9 mph - N/A Rain Light Rain
9:52 PM 71.6 °F - 69.8 °F 94% 30.01 in 5.0 mi NNE 6.9 mph - N/A Rain Heavy Rain
9:57 PM 69.8 °F - 69.8 °F 100% 30.01 in 6.0 mi NE 8.1 mph - N/A Rain Light Rain
9:58 PM 70.7 °F - 69.1 °F 95% 30.01 in 6.0 mi NE 6.9 mph - 0.66 in Rain Light Rain
10:08 PM 69.8 °F - 69.8 °F 100% 30.00 in 10.0 mi ENE 9.2 mph - N/A   Light Drizzle
10:10 PM 69.8 °F - 69.8 °F 100% 30.00 in 10.0 mi ENE 9.2 mph - N/A   Mostly Cloudy
10:20 PM 69.8 °F - 68.0 °F 94% 30.00 in 10.0 mi ENE 8.1 mph - N/A   Light Drizzle
10:45 PM 69.8 °F - 68.0 °F 94% 30.00 in 10.0 mi NE 6.9 mph - N/A   Light Drizzle
10:47 PM 69.8 °F - 68.0 °F 94% 30.00 in 10.0 mi NE 6.9 mph - N/A Rain Light Rain
10:58 PM 69.4 °F - 68.7 °F 98% 29.99 in 8.0 mi NE 8.1 mph - 0.02 in Rain Light Rain
11:03 PM 69.8 °F - 68.0 °F 94% 29.99 in 9.0 mi ENE 6.9 mph - N/A Rain Light Rain
11:41 PM 69.8 °F - 68.0 °F 94% 29.98 in 10.0 mi Variable 3.5 mph - N/A   Clear